Aviation Digital Data Service (ADDS)

Output produced by METARs form (1711 UTC 29 May 2017)
found at http://www.aviationweather.gov/adds/metars/
 
OPLA 291655Z 16009KT 5000 HZ FEW100 32/18 Q1000 A29.57 BECMG 4000 FU
TAF OPLA 291545Z 2918/3024 13008KT 4000 HZ NSC TX40/3010Z TN26/3000Z 
     FM300500 13010KT 6000 NSC 
     TEMPO 3014/3017 34020G45KT 0800 DSTSRA FEW030CB SCT040 BKN100
       
TAF OPBW 291610Z 2918/3012 13010KT 3500 HZ FEW120 TN31/3001Z TX42/3010Z 
     PROB30 
     TEMPO 3006/3010 36020KT 1500 BLDU NSC
       
TAF OPBW 291610Z 2918/3012 13010KT 3500 HZ FEW120 TN31/3001Z TX42/3010Z 
     PROB30 
     TEMPO 3006/3010 36020KT 1500 BLDU NSC
       
TAF OPDG 291610Z 2918/3012 13010KT 4000 HZ FEW120 TN32/3001Z TX43/3010Z 
     PROB30 
     TEMPO 3009/3012 36020KT 2000 BLDU FEW120
       
TAF OPGD 291600Z 2918/3018 28008KT 4000 HZ NSC 
     BECMG 3004/3006 31010G20KT 3000 BLDU NSC
       
OPKC 291655Z 23005KT 6000 NSC 31/26 Q0998
TAF OPKC 291600Z 2918/3024 25008KT 6000 FEW020 
     TEMPO 3001/3005 26007KT 4000 FU SCT020 
     BECMG 3006/3008 26010G20KT 5000 HZ NSC 
     FM301500 27008KT 6000 FEW020
       
OPLA 291655Z 16009KT 5000 HZ FEW100 32/18 Q1000 A29.57 BECMG 4000 FU
TAF OPLA 291545Z 2918/3024 13008KT 4000 HZ NSC TX40/3010Z TN26/3000Z 
     FM300500 13010KT 6000 NSC 
     TEMPO 3014/3017 34020G45KT 0800 DSTSRA FEW030CB SCT040 BKN100
       
OPMT 291657Z 18006KT 4000 HZ NSC 36/18 Q0998 NOSIG
TAF OPMT 291611Z 2918/3012 05010KT 4000 HZ FEW120 TN31/3001Z TX42/3010Z 
     PROB30 
     TEMPO 3009/3012 36020KT 2000 BLDU FEW120
       
OPNH 291700Z 13504KT 5000 HZ NSC 37/24 Q0995 NOSIG
TAF OPNH 291600Z 2918/3024 18005KT 4000 HZ 
     TEMPO 3001/3005 VRB02KT 2000 FU NSC 
     BECMG 3006/3008 18010KT 4000 HZ NSC 
     FM301500 18007KT 3000 NSC
       
OPPS 291700Z 31008KT 5000 HZ NSC 32/15 Q999
TAF OPPS 291530Z 2918/3024 22010KT 4000 HZ FEW040 SCT100 
     TEMPO 3012/3015 05015G25KT VCTS FEW030TCU SCT040 BKN100 
     TEMPO 3015/3018 33015G35KT TSRA FEW030CB SCT035 BKN080 
     TEMPO 3018/3021 VCTS FEW030TCU SCT040 BKN100
       
TAF OPRK 291610Z 2918/3012 05005KT 3000 FU FEW120 TN30/3001Z TX43/3010Z 
     PROB30 
     TEMPO 3009/3012 36020KT 1500 BLDU NSC
       
OPRN 291700Z 05010KT 7000 NSC 31/16 Q1003.1/29.62
TAF OPRN 291530Z 2918/3024 23010KT 5000 HZ FEW100 
     BECMG 3009/3011 32015G30KT 3000 TSRA FEW030TCU/CB SCT040 OVC100
       
OPSK 291700Z 05004KT 4000 HZ NSC 37/25 Q0995 NOSIG
TAF OPSK 291600Z 2918/3018 24005KT 4000 HZ NSC 
     TEMPO 3001/3005 VRB02KT 2500 FU NSC 
     BECMG 3006/3008 18010KT 4000 HZ NSC
       
OPST 291700Z 09005KT 4000 HZ NSC 31/17 Q1001 NOSIG RH43
TAF OPBW 291610Z 2918/3012 13010KT 3500 HZ FEW120 TN31/3001Z TX42/3010Z 
     PROB30 
     TEMPO 3006/3010 36020KT 1500 BLDU NSC
       
TAF OPDG 291610Z 2918/3012 13010KT 4000 HZ FEW120 TN32/3001Z TX43/3010Z 
     PROB30 
     TEMPO 3009/3012 36020KT 2000 BLDU FEW120
       
TAF OPGD 291600Z 2918/3018 28008KT 4000 HZ NSC 
     BECMG 3004/3006 31010G20KT 3000 BLDU NSC
       
OPKC 291655Z 23005KT 6000 NSC 31/26 Q0998
TAF OPKC 291600Z 2918/3024 25008KT 6000 FEW020 
     TEMPO 3001/3005 26007KT 4000 FU SCT020 
     BECMG 3006/3008 26010G20KT 5000 HZ NSC 
     FM301500 27008KT 6000 FEW020
       
OPLA 291655Z 16009KT 5000 HZ FEW100 32/18 Q1000 A29.57 BECMG 4000 FU
TAF OPLA 291545Z 2918/3024 13008KT 4000 HZ NSC TX40/3010Z TN26/3000Z 
     FM300500 13010KT 6000 NSC 
     TEMPO 3014/3017 34020G45KT 0800 DSTSRA FEW030CB SCT040 BKN100
       
OPMT 291657Z 18006KT 4000 HZ NSC 36/18 Q0998 NOSIG
TAF OPMT 291611Z 2918/3012 05010KT 4000 HZ FEW120 TN31/3001Z TX42/3010Z 
     PROB30 
     TEMPO 3009/3012 36020KT 2000 BLDU FEW120
       
OPNH 291700Z 13504KT 5000 HZ NSC 37/24 Q0995 NOSIG
TAF OPNH 291600Z 2918/3024 18005KT 4000 HZ 
     TEMPO 3001/3005 VRB02KT 2000 FU NSC 
     BECMG 3006/3008 18010KT 4000 HZ NSC 
     FM301500 18007KT 3000 NSC
       
OPPS 291700Z 31008KT 5000 HZ NSC 32/15 Q999
TAF OPPS 291530Z 2918/3024 22010KT 4000 HZ FEW040 SCT100 
     TEMPO 3012/3015 05015G25KT VCTS FEW030TCU SCT040 BKN100 
     TEMPO 3015/3018 33015G35KT TSRA FEW030CB SCT035 BKN080 
     TEMPO 3018/3021 VCTS FEW030TCU SCT040 BKN100
       
TAF OPRK 291610Z 2918/3012 05005KT 3000 FU FEW120 TN30/3001Z TX43/3010Z 
     PROB30 
     TEMPO 3009/3012 36020KT 1500 BLDU NSC
       
OPRN 291700Z 05010KT 7000 NSC 31/16 Q1003.1/29.62
TAF OPRN 291530Z 2918/3024 23010KT 5000 HZ FEW100 
     BECMG 3009/3011 32015G30KT 3000 TSRA FEW030TCU/CB SCT040 OVC100
       
OPSK 291700Z 05004KT 4000 HZ NSC 37/25 Q0995 NOSIG
TAF OPSK 291600Z 2918/3018 24005KT 4000 HZ NSC 
     TEMPO 3001/3005 VRB02KT 2500 FU NSC 
     BECMG 3006/3008 18010KT 4000 HZ NSC
       
OPST 291700Z 09005KT 4000 HZ NSC 31/17 Q1001 NOSIG RH43
OPRN 291700Z 05010KT 7000 NSC 31/16 Q1003.1/29.62
TAF OPRN 291530Z 2918/3024 23010KT 5000 HZ FEW100 
     BECMG 3009/3011 32015G30KT 3000 TSRA FEW030TCU/CB SCT040 OVC100
       
TAF OPBW 291610Z 2918/3012 13010KT 3500 HZ FEW120 TN31/3001Z TX42/3010Z 
     PROB30 
     TEMPO 3006/3010 36020KT 1500 BLDU NSC
       
TAF OPDG 291610Z 2918/3012 13010KT 4000 HZ FEW120 TN32/3001Z TX43/3010Z 
     PROB30 
     TEMPO 3009/3012 36020KT 2000 BLDU FEW120
       
TAF OPGD 291600Z 2918/3018 28008KT 4000 HZ NSC 
     BECMG 3004/3006 31010G20KT 3000 BLDU NSC
       
OPKC 291655Z 23005KT 6000 NSC 31/26 Q0998
TAF OPKC 291600Z 2918/3024 25008KT 6000 FEW020 
     TEMPO 3001/3005 26007KT 4000 FU SCT020 
     BECMG 3006/3008 26010G20KT 5000 HZ NSC 
     FM301500 27008KT 6000 FEW020
       
OPLA 291655Z 16009KT 5000 HZ FEW100 32/18 Q1000 A29.57 BECMG 4000 FU
TAF OPLA 291545Z 2918/3024 13008KT 4000 HZ NSC TX40/3010Z TN26/3000Z 
     FM300500 13010KT 6000 NSC 
     TEMPO 3014/3017 34020G45KT 0800 DSTSRA FEW030CB SCT040 BKN100
       
OPMT 291657Z 18006KT 4000 HZ NSC 36/18 Q0998 NOSIG
TAF OPMT 291611Z 2918/3012 05010KT 4000 HZ FEW120 TN31/3001Z TX42/3010Z 
     PROB30 
     TEMPO 3009/3012 36020KT 2000 BLDU FEW120
       
OPNH 291700Z 13504KT 5000 HZ NSC 37/24 Q0995 NOSIG
TAF OPNH 291600Z 2918/3024 18005KT 4000 HZ 
     TEMPO 3001/3005 VRB02KT 2000 FU NSC 
     BECMG 3006/3008 18010KT 4000 HZ NSC 
     FM301500 18007KT 3000 NSC
       
OPPS 291700Z 31008KT 5000 HZ NSC 32/15 Q999
TAF OPPS 291530Z 2918/3024 22010KT 4000 HZ FEW040 SCT100 
     TEMPO 3012/3015 05015G25KT VCTS FEW030TCU SCT040 BKN100 
     TEMPO 3015/3018 33015G35KT TSRA FEW030CB SCT035 BKN080 
     TEMPO 3018/3021 VCTS FEW030TCU SCT040 BKN100
       
TAF OPRK 291610Z 2918/3012 05005KT 3000 FU FEW120 TN30/3001Z TX43/3010Z 
     PROB30 
     TEMPO 3009/3012 36020KT 1500 BLDU NSC
       
OPRN 291700Z 05010KT 7000 NSC 31/16 Q1003.1/29.62
TAF OPRN 291530Z 2918/3024 23010KT 5000 HZ FEW100 
     BECMG 3009/3011 32015G30KT 3000 TSRA FEW030TCU/CB SCT040 OVC100
       
OPSK 291700Z 05004KT 4000 HZ NSC 37/25 Q0995 NOSIG
TAF OPSK 291600Z 2918/3018 24005KT 4000 HZ NSC 
     TEMPO 3001/3005 VRB02KT 2500 FU NSC 
     BECMG 3006/3008 18010KT 4000 HZ NSC
       
OPST 291700Z 09005KT 4000 HZ NSC 31/17 Q1001 NOSIG RH43
TAF OPBW 291610Z 2918/3012 13010KT 3500 HZ FEW120 TN31/3001Z TX42/3010Z 
     PROB30 
     TEMPO 3006/3010 36020KT 1500 BLDU NSC
       
TAF OPDG 291610Z 2918/3012 13010KT 4000 HZ FEW120 TN32/3001Z TX43/3010Z 
     PROB30 
     TEMPO 3009/3012 36020KT 2000 BLDU FEW120
       
TAF OPGD 291600Z 2918/3018 28008KT 4000 HZ NSC 
     BECMG 3004/3006 31010G20KT 3000 BLDU NSC
       
OPKC 291655Z 23005KT 6000 NSC 31/26 Q0998
TAF OPKC 291600Z 2918/3024 25008KT 6000 FEW020 
     TEMPO 3001/3005 26007KT 4000 FU SCT020 
     BECMG 3006/3008 26010G20KT 5000 HZ NSC 
     FM301500 27008KT 6000 FEW020
       
OPLA 291655Z 16009KT 5000 HZ FEW100 32/18 Q1000 A29.57 BECMG 4000 FU
TAF OPLA 291545Z 2918/3024 13008KT 4000 HZ NSC TX40/3010Z TN26/3000Z 
     FM300500 13010KT 6000 NSC 
     TEMPO 3014/3017 34020G45KT 0800 DSTSRA FEW030CB SCT040 BKN100
       
OPMT 291657Z 18006KT 4000 HZ NSC 36/18 Q0998 NOSIG
TAF OPMT 291611Z 2918/3012 05010KT 4000 HZ FEW120 TN31/3001Z TX42/3010Z 
     PROB30 
     TEMPO 3009/3012 36020KT 2000 BLDU FEW120
       
OPNH 291700Z 13504KT 5000 HZ NSC 37/24 Q0995 NOSIG
TAF OPNH 291600Z 2918/3024 18005KT 4000 HZ 
     TEMPO 3001/3005 VRB02KT 2000 FU NSC 
     BECMG 3006/3008 18010KT 4000 HZ NSC 
     FM301500 18007KT 3000 NSC
       
OPPS 291700Z 31008KT 5000 HZ NSC 32/15 Q999
TAF OPPS 291530Z 2918/3024 22010KT 4000 HZ FEW040 SCT100 
     TEMPO 3012/3015 05015G25KT VCTS FEW030TCU SCT040 BKN100 
     TEMPO 3015/3018 33015G35KT TSRA FEW030CB SCT035 BKN080 
     TEMPO 3018/3021 VCTS FEW030TCU SCT040 BKN100
       
TAF OPRK 291610Z 2918/3012 05005KT 3000 FU FEW120 TN30/3001Z TX43/3010Z 
     PROB30 
     TEMPO 3009/3012 36020KT 1500 BLDU NSC
       
OPRN 291700Z 05010KT 7000 NSC 31/16 Q1003.1/29.62
TAF OPRN 291530Z 2918/3024 23010KT 5000 HZ FEW100 
     BECMG 3009/3011 32015G30KT 3000 TSRA FEW030TCU/CB SCT040 OVC100
       
OPSK 291700Z 05004KT 4000 HZ NSC 37/25 Q0995 NOSIG
TAF OPSK 291600Z 2918/3018 24005KT 4000 HZ NSC 
     TEMPO 3001/3005 VRB02KT 2500 FU NSC 
     BECMG 3006/3008 18010KT 4000 HZ NSC
       
OPST 291700Z 09005KT 4000 HZ NSC 31/17 Q1001 NOSIG RH43
TAF OPDG 291610Z 2918/3012 13010KT 4000 HZ FEW120 TN32/3001Z TX43/3010Z 
     PROB30 
     TEMPO 3009/3012 36020KT 2000 BLDU FEW120
       
TAF OPGD 291600Z 2918/3018 28008KT 4000 HZ NSC 
     BECMG 3004/3006 31010G20KT 3000 BLDU NSC
       
OPKC 291655Z 23005KT 6000 NSC 31/26 Q0998
TAF OPKC 291600Z 2918/3024 25008KT 6000 FEW020 
     TEMPO 3001/3005 26007KT 4000 FU SCT020 
     BECMG 3006/3008 26010G20KT 5000 HZ NSC 
     FM301500 27008KT 6000 FEW020
       
OPMT 291657Z 18006KT 4000 HZ NSC 36/18 Q0998 NOSIG
TAF OPMT 291611Z 2918/3012 05010KT 4000 HZ FEW120 TN31/3001Z TX42/3010Z 
     PROB30 
     TEMPO 3009/3012 36020KT 2000 BLDU FEW120
       
OPNH 291700Z 13504KT 5000 HZ NSC 37/24 Q0995 NOSIG
TAF OPNH 291600Z 2918/3024 18005KT 4000 HZ 
     TEMPO 3001/3005 VRB02KT 2000 FU NSC 
     BECMG 3006/3008 18010KT 4000 HZ NSC 
     FM301500 18007KT 3000 NSC
       
OPPS 291700Z 31008KT 5000 HZ NSC 32/15 Q999
TAF OPPS 291530Z 2918/3024 22010KT 4000 HZ FEW040 SCT100 
     TEMPO 3012/3015 05015G25KT VCTS FEW030TCU SCT040 BKN100 
     TEMPO 3015/3018 33015G35KT TSRA FEW030CB SCT035 BKN080 
     TEMPO 3018/3021 VCTS FEW030TCU SCT040 BKN100
       
TAF OPRK 291610Z 2918/3012 05005KT 3000 FU FEW120 TN30/3001Z TX43/3010Z 
     PROB30 
     TEMPO 3009/3012 36020KT 1500 BLDU NSC
       
OPSK 291700Z 05004KT 4000 HZ NSC 37/25 Q0995 NOSIG
TAF OPSK 291600Z 2918/3018 24005KT 4000 HZ NSC 
     TEMPO 3001/3005 VRB02KT 2500 FU NSC 
     BECMG 3006/3008 18010KT 4000 HZ NSC